Frankfort, KY

7:41 AM EDT on June 27, 2017 (GMT -0400)
Capital City

Weather History for KFFT - August, 2013

Change the Weather History Date:

Wednesday, August 21, 2013

  Actual Average Record
Temperature  
Mean Temperature 76 °F 75 °F  
Max Temperature 87 °F 86 °F 105 °F (1936)
Min Temperature 64 °F 64 °F 47 °F (1932)
Degree Days  
Heating Degree Days 0 0  
Month to date heating degree days 3 0  
Since 1 June heating degree days 6 10  
Since 1 July heating degree days 4 0  
Cooling Degree Days 11 10  
Month to date cooling degree days 166 226  
Year to date cooling degree days 810 911  
Since 1 June cooling degree days 691 812  
Growing Degree Days 25 (Base 50)    
Moisture  
Dew Point 69 °F    
Average Humidity 83    
Maximum Humidity 100    
Minimum Humidity 65    
Precipitation  
Precipitation 0.15 in 0.12 in 1.03 in (2007)
Month to date precipitation 1.41 2.20  
Year to date precipitation 34.31 30.15  
Sea Level Pressure  
Sea Level Pressure 30.12 in    
Wind  
Wind Speed 4 mph (SSW)    
Max Wind Speed 22 mph    
Max Gust Speed 30 mph    
Visibility 8 miles    
Events Rain , Thunderstorm    
T = Trace of Precipitation, MM = Missing Value Source: NWS Daily Summary

Daily Weather History Graph

Daily Weather History Graph

Search for Another Location

Airport or City:

Trip Planner

Search our weather history database for the weather conditions in past years. The results will help you decide how hot, cold, wet, or windy it might be!

Date:

Astronomy

Aug. 21, 2013 Rise Set
Actual Time 6:59 AM EDT 8:24 PM EDT
Civil Twilight 6:32 AM EDT 8:52 PM EDT
Nautical Twilight 5:58 AM EDT 9:25 PM EDT
Astronomical Twilight 5:24 AM EDT 10:00 PM EDT
Moon 8:34 PM EDT (8/21) 7:37 AM EDT (8/21)
Length of Visible Light 14h 20m
Length of Day
13h 24m
Full, 100% of the Moon is Illuminated
Aug 21
Full
Aug 28
Last Quarter
Sep 5
New
Sep 12
First Quarter
Sep 19
Full

Hourly Weather History & Observations

Time (EDT) Temp. Heat Index Dew Point Humidity Pressure Visibility Wind Dir Wind Speed Gust Speed Precip Events Conditions
12:53 AM 68.0 °F - 66.9 °F 96% 30.12 in 10.0 mi Calm Calm - N/A   Clear
1:53 AM 66.9 °F - 66.0 °F 97% 30.12 in 8.0 mi Calm Calm - N/A   Partly Cloudy
2:53 AM 69.1 °F - 66.9 °F 93% 30.12 in 10.0 mi Calm Calm - N/A   Clear
3:53 AM 68.0 °F - 66.9 °F 96% 30.11 in 10.0 mi Calm Calm - N/A   Clear
4:53 AM 66.9 °F - 66.0 °F 97% 30.11 in 8.0 mi Calm Calm - N/A   Clear
5:53 AM 66.0 °F - 64.9 °F 96% 30.11 in 4.0 mi Calm Calm - N/A   Clear
6:53 AM 66.0 °F - 66.0 °F 100% 30.13 in 3.0 mi Calm Calm - N/A   Clear
7:53 AM 68.0 °F - 66.9 °F 96% 30.15 in 6.0 mi Calm Calm - N/A   Scattered Clouds
8:53 AM 73.0 °F - 70.0 °F 90% 30.17 in 10.0 mi SSW 8.1 mph - N/A   Clear
9:53 AM 75.9 °F - 72.0 °F 87% 30.17 in 10.0 mi SW 8.1 mph - N/A   Mostly Cloudy
10:53 AM 75.0 °F - 71.1 °F 87% 30.17 in 10.0 mi WSW 4.6 mph - N/A   Mostly Cloudy
11:53 AM 73.9 °F - 71.1 °F 91% 30.17 in 10.0 mi WSW 3.5 mph - N/A   Partly Cloudy
12:53 PM 80.1 °F 83.6 °F 71.1 °F 74% 30.15 in 10.0 mi Variable 5.8 mph - N/A   Clear
1:53 PM 82.0 °F 85.9 °F 70.0 °F 67% 30.13 in 10.0 mi South 6.9 mph - N/A   Clear
2:53 PM 82.9 °F 86.5 °F 69.1 °F 63% 30.11 in 10.0 mi WSW 8.1 mph - N/A   Clear
3:41 PM 82.4 °F 86.3 °F 69.8 °F 66% 30.12 in 10.0 mi South 6.9 mph - N/A Thunderstorm Thunderstorm
3:53 PM 84.9 °F 90.1 °F 71.1 °F 63% 30.09 in 10.0 mi SSE 9.2 mph - N/A Thunderstorm Thunderstorm
4:53 PM 80.1 °F 82.9 °F 69.1 °F 69% 30.09 in 10.0 mi South 21.9 mph 29.9 mph N/A Thunderstorm Mostly Cloudy
5:53 PM 73.0 °F - 68.0 °F 84% 30.12 in 4.0 mi NNW 10.4 mph - 0.05 in Rain , Thunderstorm Heavy Thunderstorms and Rain
6:05 PM 71.6 °F - 68.0 °F 88% 30.09 in 2.5 mi Calm Calm - 0.05 in Rain , Thunderstorm Thunderstorms and Rain
6:22 PM 71.6 °F - 69.8 °F 94% 30.11 in 5.0 mi Calm Calm - 0.08 in Rain , Thunderstorm Light Rain
6:37 PM 71.6 °F - 69.8 °F 94% 30.10 in 6.0 mi Calm Calm - 0.09 in Rain Light Rain
6:53 PM 71.1 °F - 69.1 °F 93% 30.09 in 10.0 mi Calm Calm - 0.10 in Rain Light Rain
7:53 PM 71.1 °F - 70.0 °F 96% 30.09 in 10.0 mi South 4.6 mph - 0.00 in   Clear
8:53 PM 70.0 °F - 68.0 °F 93% 30.09 in 10.0 mi ESE 4.6 mph - N/A   Scattered Clouds
9:53 PM 69.1 °F - 68.0 °F 96% 30.09 in 10.0 mi Calm Calm - N/A   Clear
10:53 PM 69.1 °F - 66.9 °F 93% 30.09 in 10.0 mi Calm Calm - N/A   Clear
11:53 PM 68.0 °F - 66.9 °F 96% 30.12 in 10.0 mi ESE 3.5 mph - N/A   Clear